Location: Unspecified
(38.0989°N, 0.6729°W)
Time: 12:30:41
(UTC+02:00)

Hubble Space Telescope - Visible Passes

Search period start: 31 March 2023 00:00
Search period end: 10 April 2023 00:00
Orbit: 527 x 530 km, 28.5° (Epoch: 30 March)

Date Brightness Start Highest point End Pass type
(mag) Time Alt. Az. Time Alt. Az. Time Alt. Az.
31 Mar 2.7 21:37:36 10° SSW 21:39:47 14° SSE 21:40:02 14° SSE visible
01 Apr 2.6 21:23:21 10° SSW 21:25:50 16° SSE 21:27:11 14° SE visible
02 Apr 2.6 21:09:10 10° SSW 21:11:52 17° S 21:14:16 11° SE visible
02 Apr 3.5 22:49:08 10° SW 22:49:24 11° SW 22:49:24 11° SW visible
03 Apr 2.6 20:55:03 10° SW 20:57:53 18° S 21:00:44 10° SE visible
03 Apr 3.0 22:35:13 10° SW 22:36:24 15° SW 22:36:24 15° SW visible
04 Apr 2.7 22:21:18 10° SW 22:23:20 18° SSW 22:23:20 18° SSW visible
05 Apr 2.6 22:07:24 10° SW 22:10:14 18° S 22:10:14 18° S visible
06 Apr 2.6 21:53:31 10° SW 21:56:15 17° S 21:57:07 16° S visible
07 Apr 2.8 21:39:41 10° SW 21:42:13 16° SSW 21:43:59 13° SSE visible
08 Apr 3.0 21:25:55 10° SW 21:28:09 14° SSW 21:30:24 10° SSE visible
09 Apr 3.1 21:12:14 10° SW 21:14:05 13° SSW 21:15:55 10° S visible
